FW6033 Weather Reports


time (UTC)temp
C
wind
direction
speed
KPH
gust
KPH
rain 1hr
cm
rain 24hr
cm
rain mn
cm
humidity
%
barometer
mb
20260906220005 26 173 16.1 49.9 0.00 0.00 0.00 22 996.7
20260906214505 26 198 12.9 33.8 0.00 0.00 0.00 23 996.9
20260906213005 25 250 16.1 33.8 0.00 0.00 0.00 23 997.0
20260906211501 25 245 9.7 19.3 0.00 0.00 0.00 24 997.1
20260906210059 25 201 9.7 29.0 0.00 0.00 0.00 24 997.4
20260906204558 26 196 12.9 22.5 0.00 0.00 0.00 24 997.5
20260906203111 25 127 3.2 24.1 0.00 0.00 0.00 27 997.6
20260906201603 26 237 4.8 14.5 0.00 0.00 0.00 27 997.9
20260906200053 26 196 11.3 38.6 0.00 0.00 0.00 26 998.1
20260906194604 26 153 6.4 19.3 0.00 0.00 0.00 27 998.3
20260906193105 26 153 8.0 17.7 0.00 0.00 0.00 26 998.5
20260906191557 26 150 9.7 19.3 0.00 0.00 0.00 27 998.8
20260906190047 25 197 4.8 24.1 0.00 0.00 0.00 29 999.0
20260906184547 24 157 4.8 22.5 0.00 0.00 0.00 30 999.3
20260906183043 26 190 4.8 12.9 0.00 0.00 0.00 28 999.5
20260906181603 26 189 3.2 17.7 0.00 0.00 0.00 27 999.9
20260906180038 25 236 8.0 19.3 0.00 0.00 0.00 28 1000.0
20260906174536 23 109 4.8 24.1 0.00 0.00 0.00 32 1000.4
20260906173032 24 204 11.3 22.5 0.00 0.00 0.00 29 1000.6
20260906171530 23 194 1.6 12.9 0.00 0.00 0.00 31 1000.9
20260906170029 22 255 11.3 24.1 0.00 0.00 0.00 32 1000.9
20260906164537 22 194 4.8 16.1 0.00 0.00 0.00 32 1001.0
20260906163027 23 171 1.6 14.5 0.00 0.00 0.00 32 1000.9
20260906161526 23 74 8.0 14.5 0.00 0.00 0.00 31 1001.2
20260906160024 23 155 1.6 6.4 0.00 0.00 0.00 32 1001.2
20260906154535 22 159 3.2 11.3 0.00 0.00 0.00 34 1001.3
20260906153021 22 149 3.2 9.7 0.00 0.00 0.00 36 1001.4
20260906151514 20 113 1.6 6.4 0.00 0.00 0.00 38 1001.4
20260906150010 19 91 3.2 6.4 0.00 0.00 0.00 40 1001.6
20260906144506 18 156 0.0 1.6 0.00 0.00 0.00 43 1001.7
20260906143024 17 155 0.0 4.8 0.00 0.00 0.00 45 1001.7
20260906141530 16 196 8.0 19.3 0.00 0.00 0.00 43 1001.7
20260906140020 16 279 20.9 25.7 0.00 0.00 0.00 43 1001.5
20260906134521 13 297 22.5 27.4 0.00 0.00 0.00 48 1001.5
20260906133014 13 278 24.1 32.2 0.00 0.00 0.00 46 1001.3
20260906131512 13 279 24.1 29.0 0.00 0.00 0.00 48 1001.2
20260906130010 12 292 22.5 27.4 0.00 0.00 0.00 50 1001.3
20260906124510 12 288 22.5 29.0 0.00 0.00 0.00 51 1001.3
20260906123011 11 285 22.5 29.0 0.00 0.00 0.00 53 1001.2
20260906121508 11 279 22.5 30.6 0.00 0.00 0.00 54 1001.0
20260906120006 11 282 22.5 29.0 0.00 0.00 0.00 57 1000.9
20260906114515 11 281 24.1 32.2 0.00 0.00 0.00 56 1001.0
20260906113007 11 282 24.1 30.6 0.00 0.00 0.00 55 1001.1
20260906111503 11 285 24.1 30.6 0.00 0.00 0.00 56 1000.9
20260906110002 12 284 25.7 35.4 0.00 0.00 0.00 53 1000.9
20260906104502 11 289 27.4 35.4 0.00 0.00 0.00 56 1000.9
20260906103101 12 288 24.1 33.8 0.00 0.00 0.00 55 1000.9
20260906101559 12 271 27.4 35.4 0.00 0.00 0.00 55 1001.0
20260906100057 12 288 25.7 33.8 0.00 0.00 0.00 55 1000.9
20260906094611 12 291 20.9 29.0 0.00 0.00 0.00 54 1000.9
20260906093127 12 254 22.5 29.0 0.00 0.00 0.00 54 1000.9
20260906091603 12 279 22.5 30.6 0.00 0.00 0.00 54 1000.9
20260906090051 12 284 19.3 25.7 0.00 0.00 0.00 54 1000.9
20260906084551 12 283 19.3 24.1 0.00 0.00 0.00 54 1001.0
20260906083050 12 265 20.9 27.4 0.00 0.00 0.00 53 1000.8
20260906081549 12 271 14.5 22.5 0.00 0.00 0.00 54 1001.2
20260906080048 12 269 12.9 17.7 0.00 0.00 0.00 56 1001.2
20260906074547 12 263 14.5 22.5 0.00 0.00 0.00 55 1001.3
20260906073043 12 278 19.3 24.1 0.00 0.00 0.00 56 1001.0
20260906071540 12 279 16.1 24.1 0.00 0.00 0.00 54 1000.9
20260906070039 13 267 16.1 27.4 0.00 0.00 0.00 53 1001.0
20260906064537 13 273 22.5 30.6 0.00 0.00 0.00 54 1000.6
20260906063036 13 281 24.1 32.2 0.00 0.00 0.00 54 1000.4
20260906061533 13 284 24.1 30.6 0.00 0.00 0.00 55 1000.3
20260906060030 13 279 22.5 29.0 0.00 0.00 0.00 55 1000.4
20260906054532 13 284 24.1 30.6 0.00 0.00 0.00 54 1000.4
20260906053029 13 284 22.5 29.0 0.00 0.00 0.00 54 1000.4
20260906051532 14 273 25.7 32.2 0.00 0.00 0.00 54 1000.5
20260906050028 13 285 22.5 30.6 0.00 0.00 0.00 55 1000.2
20260906044531 14 297 24.1 30.6 0.00 0.00 0.00 54 1000.5
20260906043027 14 274 22.5 32.2 0.00 0.00 0.00 53 1000.6
20260906041526 13 275 24.1 32.2 0.00 0.00 0.00 55 1000.7
20260906040030 13 277 24.1 33.8 0.00 0.00 0.00 55 1000.7
20260906034526 14 281 24.1 30.6 0.00 0.00 0.00 54 1000.7
20260906033036 14 307 22.5 29.0 0.00 0.00 0.00 54 1000.9
20260906031534 15 281 20.9 25.7 0.00 0.00 0.00 53 1000.7
20260906030022 15 275 19.3 25.7 0.00 0.00 0.00 51 1000.7
20260906024540 15 290 19.3 24.1 0.00 0.00 0.00 51 1000.5
20260906023025 15 286 16.1 20.9 0.00 0.00 0.00 52 1000.3
20260906021521 16 286 9.7 12.9 0.00 0.00 0.00 49 1000.0
20260906020020 17 271 9.7 12.9 0.00 0.00 0.00 48 1000.0
20260906014534 17 297 3.2 6.4 0.00 0.00 0.00 47 1000.0
20260906013036 18 141 1.6 8.0 0.00 0.00 0.00 44 1000.0
20260906011520 19 182 1.6 14.5 0.00 0.00 0.00 43 1000.0
20260906010024 20 189 0.0 3.2 0.00 0.00 0.00 41 1000.1
20260906004519 20 174 1.6 8.0 0.00 0.00 0.00 39 999.9
20260906003017 21 201 6.4 12.9 0.00 0.00 0.00 38 999.9
20260906001521 21 130 8.0 17.7 0.00 0.00 0.00 37 999.7
20260906000017 22 142 6.4 19.3 0.00 0.00 0.00 35 999.6
20260905234515 23 192 3.2 11.3 0.00 0.00 0.00 27 999.5
20260905233015 23 191 0.0 14.5 0.00 0.00 0.00 27 999.2
20260905231516 24 200 6.4 24.1 0.00 0.00 0.00 26 999.1
20260905230013 24 205 9.7 20.9 0.00 0.00 0.00 26 998.7
20260905224513 23 244 9.7 29.0 0.00 0.00 0.00 28 998.7
20260905223012 23 234 16.1 25.7 0.00 0.00 0.00 27 998.8
20260905221511 23 192 8.0 27.4 0.00 0.00 0.00 27 998.8